Home   Weather   Fort Nelson   Past weeks

Flag for Canada Past Weather in Fort Nelson, British Columbia, Canada — Yesterday and Last 2 Weeks

Now
34 °F

Clear.


Feels Like: 30 °F
Forecast: 35 / 55 °F
Wind: 5 mph from South

Location: Fort Nelson

Current Time: Sep 28, 2016 at 1:43:51 AM

Latest Report: Sep 28, 2016 at 1:00 AM


Visibility: 15 mi

Pressure: 30.23 "Hg

Humidity: 87%

Dew Point: 30 °F

Location of Fort NelsonLocation

Past Weather in Fort Nelson — Graph

°F

Fort Nelson Temperature Yesterday

Maximum temperature yesterday: 55 °F (at 3:00 PM)
Minimum temperature yesterday: 34 °F (at 11:00 PM)
Average temperature yesterday: 45 °F

High & Low Weather Summary for the Past Weeks

 TemperatureHumidityPressure
High75 °F (Sep 13, 12:00 PM)100% (Sep 16, 5:00 AM)30.22 "Hg (Sep 16, 5:00 AM)
Low32 °F (Sep 22, 6:00 AM)27% (Sep 13, 12:00 PM)29.46 "Hg (Sep 17, 6:00 AM)
Average51 °F71%29.81 "Hg
* Reported Sep 13 12:00 AM — Sep 28 12:00 AM, Fort Nelson, Weather by CustomWeather, © 2016

Note: Actual official high and low records may vary slightly from our data, if they occured in-between our weather recording intervals... More about our weather records

Advertising

Fort Nelson Weather History for the Previous 24 Hours

Scroll right to see more
 ConditionsComfort  
Time TempWeatherWind HumidityBarometerVisibility
12:00 AM
Wed, Sep 28
37 °FClear.3 mph75%30.22 "Hg15 mi
11:00 PM
Tue, Sep 27
34 °FPassing clouds.5 mph81%30.20 "Hg15 mi
10:00 PM36 °FPassing clouds.3 mph81%30.19 "Hg15 mi
9:00 PM39 °FPassing clouds.3 mph75%30.17 "Hg15 mi
8:00 PM45 °FPassing clouds.5 mph57%30.14 "Hg20 mi
7:00 PM50 °FPassing clouds.7 mph40%30.12 "Hg30 mi
6:00 PM54 °FScattered clouds.6 mph33%30.10 "Hg30 mi
5:00 PM55 °FBroken clouds.12 mph31%30.08 "Hg30 mi
4:00 PM55 °FBroken clouds.18 mph31%30.07 "Hg30 mi
3:00 PM55 °FPartly sunny.15 mph31%30.04 "Hg30 mi
2:00 PM54 °FPartly sunny.20 mph30%30.02 "Hg30 mi
1:00 PM54 °FPartly sunny.18 mph33%29.99 "Hg30 mi
12:00 PM54 °FScattered clouds.15 mph41%29.97 "Hg30 mi
11:00 AM50 °FScattered clouds.17 mph50%29.95 "Hg30 mi
10:00 AM41 °FScattered clouds.3 mph93%29.93 "Hg30 mi
9:00 AM37 °FPartly sunny.No wind100%29.90 "Hg30 mi
8:00 AM37 °FScattered clouds.6 mph100%29.88 "Hg30 mi
7:00 AM36 °FLight fog.5 mph100%29.86 "Hg30 mi
6:00 AM36 °FLight fog.7 mph100%29.84 "Hg15 mi
5:00 AM37 °FPassing clouds.3 mph100%29.82 "Hg15 mi
4:00 AM39 °FPassing clouds.No wind93%29.80 "Hg15 mi
3:00 AM41 °FPassing clouds.6 mph93%29.78 "Hg15 mi
2:00 AM41 °FPartly cloudy.2 mph93%29.76 "Hg15 mi
1:00 AM45 °FPassing clouds.7 mph93%29.73 "Hg15 mi
Weather by CustomWeather, © 2016

See weather overviewHow to use our weather pages